User: anonymous   Login
Location: Caltech
(34.1382°N, 118.1253°W)
Time: 02:53:20
(UTC-08:00)
Language:

Lacrosse 5 rocket - Orbit

View from above orbital plane
View from above orbital plane
View from above satellite
View from above satellite

Ground track
Ground track

The orbit data is extracted from the following two-line orbital elements,

1 28647U 05016B   16043.48631976 0.00001950  00000-0  11825-3 0    05
2 28647  56.9901 206.5796 0122706 149.7421 210.2579 15.03945505    03
Epoch (UTC): 12 February 2016 11:40:18
Eccentricity: 0.0122706
inclination: 56.9901°
perigee height: 469 km
apogee height: 640 km
right ascension of ascending node: 206.5796°
argument of perigee: 149.7421°
revolutions per day: 15.03945505
mean anomaly at epoch: 210.2579°
orbit number at epoch: 0

The dashed part of the orbit path shows where the satellite is in the earth's shadow,  

DLR